Location: Newark
(45.8667°N, 9.7333°E)
Time: 13:58:06
(UTC+00:00)

A-11 Canister half - Pass Details

Date: 25 January 2020
Orbit: 1517 x 1683 km, 47.2° (Epoch: 23 February)

Event Time Altitude Azimuth Distance (km) Brightness Sun altitude
Rises 20:17:55 0° 178° (S) 4,770 - -41.8°
Reaches altitude 10° 20:22:43 10° 158° (SSE) 3,756 - -42.6°
Maximum altitude 20:27:41 16° 125° (SE) 3,301 - -43.4°
Drops below altitude 10° 20:32:35 10° 93° (E) 3,708 - -44.2°
Sets 20:37:13 0° 73° (ENE) 4,677 - -44.9°
